Wind_Speed
9 9 7 8 11 10 11 10 11 12 10 10 13 13 14 13 16 17 19 17 17 16
8 6 8 12 10 8 10 12 11 12 12 12 12 11 12 13 17 19 16 18 20 19
1 5 8 6 9 10 10 13 15 15 14 13 12 12 13 13 15 18 17 19 18 19
3 5 6 8 9 11 12 12 13 14 13 14 13 12 14 15 15 15 16 17 18 19
6 7 6 9 9 13 14 14 13 13 13 13 12 12 13 13 15 15 17 16 17 19
6 6 8 9 10 11 13 13 12 12 12 13 13 13 12 13 13 15 15 16 17 17
6 8 9 11 12 13 14 13 12 12 12 12 12 12 12 11 14 15 15 15 16 18
10 11 12 12 13 13 12 12 13 12 12 11 11 11 16 21 23 20 17 17 17 17
9 10 10 13 13 12 11 11 13 12 13 13 10 17 16 16 18 16 16 16 15 17
9 9 13 13 13 12 12 12 13 13 13 14 16 18 18 19 20 18 16 16 16 16
9 9 10 13 13 12 12 14 16 16 16 15 15 18 17 17 18 15 15 15 16 16
10 9 10 11 12 13 11 11 12 13 15 15 15 17 17 17 18 14 15 14 14 13
8 8 9 10 10 11 10 8 10 11 11 16 14 16 17 18 17 14 14 12 15 16
6 6 8 8 10 13 10 10 11 12 12 13 17 18 17 18 17 18 17 13 13 13
Wind_Direction
241 261 270 285 266 303 282 285 281 296 307 300 288 280 275 283 284 278 269 261 256 256
250 264 260 269 299 298 300 277 283 293 296 294 289 288 276 281 268 265 276 273 267 262
305 274 272 297 300 294 302 298 295 291 283 288 292 281 285 290 289 286 279 276 265 261
304 312 323 314 309 309 307 304 306 303 300 295 291 294 287 281 286 296 290 280 278 272
330 336 324 318 320 311 310 312 308 305 302 304 300 298 292 291 284 289 286 289 290 282
341 340 337 330 328 326 323 323 326 321 314 309 306 304 298 291 294 286 287 293 295 290
330 327 327 323 323 324 326 332 328 329 328 325 321 314 309 290 279 281 292 285 282 283
325 326 328 326 323 325 332 329 330 332 329 329 340 296 294 290 290 289 289 281 279 285
323 331 324 314 323 323 322 329 326 327 329 330 330 295 306 311 308 303 295 289 283 282
323 328 314 329 332 331 328 330 329 327 323 323 331 318 321 325 325 320 310 301 288 283
309 314 332 323 336 339 323 336 336 337 331 328 319 320 325 328 331 323 315 304 297 285
312 319 326 328 328 327 332 327 340 330 332 332 333 334 333 334 338 333 332 320 308 291
302 308 315 320 318 311 313 344 319 331 333 321 337 340 340 341 341 333 329 334 319 305
299 314 313 315 313 308 318 328 326 327 325 333 328 336 337 338 339 336 334 330 324 318
Height
1549 1550 1550 1550 1548 1548 1546 1545 1544 1543 1542 1541 1541 1540 1540 1540 1540 1537 1537 1536 1537 1538
1546 1546 1546 1545 1544 1544 1543 1541 1541 1541 1540 1538 1539 1537 1536 1536 1534 1532 1532 1531 1532 1532
1544 1543 1542 1542 1541 1540 1539 1538 1536 1536 1536 1535 1534 1533 1532 1531 1531 1528 1527 1526 1527 1525
1542 1542 1541 1539 1537 1536 1535 1534 1533 1532 1531 1530 1530 1529 1528 1527 1526 1524 1523 1522 1521 1521
1540 1539 1539 1536 1535 1532 1531 1529 1529 1528 1527 1526 1525 1524 1523 1523 1523 1521 1519 1518 1516 1515
1539 1538 1536 1534 1532 1530 1528 1526 1525 1524 1523 1521 1520 1519 1519 1518 1517 1516 1515 1514 1513 1511
1536 1534 1532 1530 1528 1527 1525 1524 1522 1522 1520 1519 1517 1516 1515 1514 1512 1510 1509 1509 1509 1508
1532 1530 1529 1527 1525 1524 1523 1522 1521 1520 1519 1517 1515 1512 1510 1508 1507 1505 1504 1503 1503 1503
1531 1529 1528 1525 1523 1522 1521 1521 1519 1518 1516 1513 1512 1507 1506 1504 1502 1500 1499 1498 1498 1498
1530 1529 1525 1522 1521 1520 1518 1517 1515 1513 1512 1509 1507 1503 1502 1500 1498 1495 1494 1493 1493 1493
1527 1526 1523 1521 1520 1519 1518 1515 1513 1512 1510 1508 1505 1502 1499 1498 1496 1495 1494 1492 1490 1489
1525 1523 1522 1522 1521 1519 1517 1516 1514 1513 1509 1506 1503 1500 1497 1495 1493 1493 1491 1490 1488 1486
1523 1523 1522 1521 1521 1519 1515 1514 1513 1511 1509 1505 1502 1498 1496 1494 1492 1490 1489 1487 1486 1482
1522 1522 1522 1521 1520 1516 1513 1512 1512 1511 1509 1507 1503 1499 1497 1494 1491 1488 1486 1485 1483 1480